Volver al catálogo

PEGASUS R/B(2)

ActivoLEO
NORAD 25484·ROCKET BODY·🇺🇸 United States

Lanzado Sep 23, 1998 desde Cape Canaveral Space Force Station

Loading…

Próximos Pases (próximas 24 horas)

TLE

ActualizadoSource: Space-Track

Época: Sep 14, 2026, 15:03 UTC

1 25484U 98053K   26257.62720814  .00000038  00000-0  51994-4 0  9993
2 25484  44.5293 118.6767 0063250 238.3916 149.5578 14.43556855473500

Sigue PEGASUS R/B(2) en tiempo real con AllMySat

Download on the App Store